Location: Grossmotten
(48.5500°N, 15.3833°E)
Time: 21:13:23
(UTC+00:00)

Cosmos 2016 Rocket - Pass Details

Date: 15 November 2019
Orbit: 947 x 1000 km, 83.0° (Epoch: 14 December)

Event Time Altitude Azimuth Distance (km) Brightness Sun altitude
Rises 05:16:31 0° 204° (SSW) 3,653 6.9 -8.3°
Reaches altitude 10° 05:19:05 10° 210° (SSW) 2,718 6.2 -7.9°
Maximum altitude 05:25:07 51° 285° (WNW) 1,232 4.2 -7.0°
Drops below altitude 10° 05:31:17 10° 1° (N) 2,768 6.2 -6.0°
Sets 05:33:56 0° 7° (N) 3,727 6.9 -5.6°
